Location: Karlsruhe
(49.0131°N, 8.3874°E)
Time: 00:50:00
(UTC+02:00)

ISS - Visible Passes

Search period start: 22 October 2019 00:00
Search period end: 31 October 2019 23:00
Orbit: 411 x 421 km, 51.6° (Epoch: 21 October)

Date Brightness Start Highest point End Pass type
(mag) Time Alt. Az. Time Alt. Az. Time Alt. Az.
24 Oct -0.7 06:50:07 10° SSE 06:51:39 13° SE 06:53:11 10° ESE visible
26 Oct -1.8 06:47:55 10° SSW 06:50:49 27° SE 06:53:43 10° E visible
27 Oct -1.3 05:00:46 14° S 05:02:21 18° SE 05:04:45 10° E visible
28 Oct -0.6 04:14:37 11° ESE 04:14:37 11° ESE 04:15:13 10° ESE visible
28 Oct -3.2 05:47:32 16° SW 05:50:06 55° SSE 05:53:25 10° ENE visible
29 Oct -2.7 05:01:15 37° SSE 05:01:32 37° SSE 05:04:41 10° ENE visible
29 Oct -3.7 06:34:49 10° W 06:38:10 66° NNW 06:41:32 10° ENE visible
30 Oct -0.8 04:14:49 16° E 04:14:49 16° E 04:15:51 10° E visible
30 Oct -3.8 05:47:44 26° WSW 05:49:29 82° NNW 05:52:52 10° ENE visible
31 Oct -3.4 05:01:13 63° E 05:01:13 63° E 05:04:11 10° ENE visible
31 Oct -3.4 06:34:22 10° W 06:37:41 53° N 06:41:00 10° ENE visible
